| time (UTC) | temp F | wind direction | speed MPH | gust MPH | rain 1hr in | rain 24hr in | rain mn in | humidity % | barometer mb |
| 20260509054027 | 49 | 0 | 0.0 | 0.0 | 0.00 | 0.02 | 0.00 | 86 | 1011.1 |
| 20260509053527 | 49 | 0 | 0.0 | 0.0 | 0.00 | 0.02 | 0.00 | 86 | 1011.2 |
| 20260509053051 | 49 | 0 | 0.0 | 0.0 | 0.00 | 0.02 | 0.00 | 86 | 1011.2 |
| 20260509052527 | 49 | 0 | 0.0 | 0.0 | 0.00 | 0.02 | 0.00 | 85 | 1011.3 |
| 20260509052031 | 49 | 0 | 0.0 | 0.0 | 0.00 | 0.02 | 0.00 | 85 | 1011.3 |
| 20260509051543 | 49 | 0 | 0.0 | 0.0 | 0.00 | 0.02 | 0.00 | 85 | 1011.5 |
| 20260509051030 | 49 | 0 | 0.0 | 0.0 | 0.00 | 0.02 | 0.00 | 85 | 1012.1 |
| 20260509050530 | 49 | 0 | 0.0 | 0.0 | 0.00 | 0.02 | 0.00 | 85 | 1012.2 |
| 20260509050054 | 49 | 0 | 0.0 | 0.0 | 0.00 | 0.02 | 0.00 | 85 | 1012.0 |
| 20260509045529 | 49 | 0 | 0.0 | 0.0 | 0.00 | 0.02 | 0.00 | 85 | 1012.1 |
| 20260509045027 | 50 | 0 | 0.0 | 0.0 | 0.00 | 0.02 | 0.00 | 85 | 1012.1 |
| 20260509044547 | 50 | 0 | 0.0 | 0.0 | 0.00 | 0.02 | 0.00 | 85 | 1012.1 |
| 20260509044030 | 50 | 0 | 0.0 | 0.0 | 0.00 | 0.02 | 0.00 | 85 | 1012.0 |
| 20260509043529 | 50 | 0 | 0.0 | 0.0 | 0.00 | 0.02 | 0.00 | 84 | 1011.9 |
| 20260509043054 | 50 | 0 | 0.0 | 0.0 | 0.00 | 0.02 | 0.00 | 84 | 1011.8 |
| 20260509042527 | 50 | 0 | 0.0 | 0.0 | 0.00 | 0.02 | 0.00 | 84 | 1011.9 |
| 20260509042034 | 50 | 0 | 0.0 | 0.0 | 0.00 | 0.02 | 0.00 | 84 | 1011.9 |
| 20260509041549 | 50 | 0 | 0.0 | 0.0 | 0.00 | 0.02 | 0.00 | 84 | 1011.7 |
| 20260509041030 | 50 | 0 | 0.0 | 0.0 | 0.00 | 0.02 | 0.00 | 84 | 1011.8 |
| 20260509040530 | 50 | 0 | 0.0 | 0.0 | 0.00 | 0.02 | 0.00 | 84 | 1012.0 |
| 20260509040052 | 50 | 0 | 0.0 | 0.0 | 0.00 | 0.02 | 0.00 | 83 | 1012.0 |
| 20260509035534 | 50 | 0 | 0.0 | 0.0 | 0.00 | 0.02 | 0.02 | 84 | 1012.1 |
| 20260509035029 | 50 | 0 | 0.0 | 0.0 | 0.00 | 0.02 | 0.02 | 84 | 1012.1 |
| 20260509034550 | 50 | 0 | 0.0 | 0.0 | 0.00 | 0.02 | 0.02 | 84 | 1012.2 |
| 20260509034031 | 50 | 0 | 0.0 | 0.0 | 0.00 | 0.02 | 0.02 | 83 | 1012.2 |
| 20260509033529 | 50 | 0 | 0.0 | 0.0 | 0.00 | 0.02 | 0.02 | 83 | 1012.1 |
| 20260509033050 | 50 | 0 | 0.0 | 0.0 | 0.00 | 0.02 | 0.02 | 83 | 1012.2 |
| 20260509032528 | 50 | 0 | 0.0 | 0.0 | 0.00 | 0.02 | 0.02 | 82 | 1012.1 |
| 20260509032028 | 50 | 0 | 0.0 | 0.0 | 0.00 | 0.02 | 0.02 | 81 | 1011.7 |
| 20260509031614 | 50 | 0 | 0.0 | 0.0 | 0.00 | 0.02 | 0.02 | 81 | 1011.7 |
| 20260509031027 | 50 | 0 | 0.0 | 0.0 | 0.00 | 0.02 | 0.02 | 81 | 1011.7 |
| 20260509030530 | 50 | 0 | 0.0 | 0.0 | 0.00 | 0.02 | 0.02 | 80 | 1011.8 |
| 20260509030045 | 50 | 0 | 0.0 | 0.0 | 0.00 | 0.02 | 0.02 | 80 | 1011.8 |
| 20260509025526 | 51 | 0 | 0.0 | 0.0 | 0.00 | 0.03 | 0.02 | 80 | 1011.8 |
| 20260509025027 | 51 | 0 | 0.0 | 0.0 | 0.00 | 0.03 | 0.02 | 80 | 1011.9 |
| 20260509024542 | 51 | 0 | 0.0 | 0.0 | 0.00 | 0.03 | 0.02 | 79 | 1011.8 |
| 20260509024027 | 51 | 0 | 0.0 | 0.0 | 0.00 | 0.03 | 0.02 | 79 | 1012.1 |
| 20260509023527 | 51 | 0 | 0.0 | 0.0 | 0.00 | 0.03 | 0.02 | 79 | 1012.0 |
| 20260509023050 | 51 | 0 | 0.0 | 0.0 | 0.00 | 0.03 | 0.02 | 79 | 1012.3 |
| 20260509022529 | 51 | 0 | 0.0 | 3.0 | 0.00 | 0.03 | 0.02 | 78 | 1012.2 |
| 20260509022031 | 52 | 0 | 0.0 | 3.0 | 0.00 | 0.03 | 0.02 | 78 | 1012.2 |
| 20260509021547 | 52 | 360 | 1.0 | 3.0 | 0.00 | 0.03 | 0.02 | 78 | 1012.2 |
| 20260509021029 | 52 | 360 | 0.0 | 2.0 | 0.00 | 0.03 | 0.02 | 77 | 1011.9 |
| 20260509020529 | 52 | 360 | 0.0 | 2.0 | 0.00 | 0.03 | 0.02 | 76 | 1011.9 |
| 20260509020044 | 52 | 0 | 0.0 | 3.0 | 0.00 | 0.03 | 0.02 | 76 | 1011.9 |
| 20260509015527 | 52 | 0 | 0.0 | 3.0 | 0.00 | 0.03 | 0.02 | 76 | 1011.8 |
| 20260509015028 | 52 | 0 | 0.0 | 3.0 | 0.00 | 0.03 | 0.02 | 74 | 1011.5 |
| 20260509014547 | 53 | 288 | 0.0 | 3.0 | 0.00 | 0.03 | 0.02 | 75 | 1011.2 |
| 20260509014030 | 53 | 0 | 0.0 | 3.0 | 0.00 | 0.03 | 0.02 | 75 | 1011.7 |
| 20260509013530 | 53 | 0 | 0.0 | 6.0 | 0.00 | 0.03 | 0.02 | 73 | 1012.0 |
| 20260509013047 | 53 | 360 | 0.0 | 6.0 | 0.00 | 0.03 | 0.02 | 73 | 1012.1 |
| 20260509012531 | 53 | 360 | 2.0 | 5.0 | 0.00 | 0.03 | 0.02 | 72 | 1012.0 |
| 20260509012031 | 53 | 329 | 2.0 | 5.0 | 0.00 | 0.03 | 0.02 | 71 | 1011.8 |
| 20260509011547 | 53 | 278 | 0.0 | 3.0 | 0.00 | 0.03 | 0.02 | 70 | 1011.8 |
| 20260509011031 | 54 | 0 | 1.0 | 3.0 | 0.00 | 0.03 | 0.02 | 69 | 1011.7 |
| 20260509010531 | 54 | 360 | 0.0 | 3.0 | 0.00 | 0.03 | 0.02 | 69 | 1011.3 |
| 20260509010050 | 54 | 0 | 0.0 | 2.0 | 0.00 | 0.03 | 0.02 | 68 | 1011.0 |
| 20260509005532 | 54 | 0 | 0.0 | 4.0 | 0.00 | 0.03 | 0.02 | 68 | 1011.0 |
| 20260509005031 | 54 | 0 | 0.0 | 12.0 | 0.00 | 0.03 | 0.02 | 67 | 1011.0 |
| 20260509004552 | 54 | 277 | 1.0 | 12.0 | 0.00 | 0.03 | 0.02 | 66 | 1011.0 |
| 20260509004030 | 54 | 360 | 1.0 | 13.0 | 0.00 | 0.03 | 0.02 | 66 | 1010.9 |
| 20260509003531 | 54 | 360 | 5.0 | 13.0 | 0.00 | 0.03 | 0.02 | 66 | 1010.9 |
| 20260509003047 | 54 | 286 | 6.0 | 13.0 | 0.00 | 0.03 | 0.02 | 66 | 1011.1 |
| 20260509002530 | 55 | 360 | 1.0 | 8.0 | 0.00 | 0.03 | 0.02 | 65 | 1011.1 |
| 20260509002030 | 55 | 360 | 2.0 | 11.0 | 0.00 | 0.03 | 0.02 | 64 | 1011.1 |
| 20260509001545 | 55 | 360 | 3.0 | 11.0 | 0.00 | 0.03 | 0.02 | 64 | 1011.0 |
| 20260509001030 | 55 | 360 | 2.0 | 12.0 | 0.00 | 0.03 | 0.02 | 65 | 1010.9 |
| 20260509000531 | 55 | 289 | 2.0 | 14.0 | 0.00 | 0.03 | 0.02 | 65 | 1011.0 |
| 20260508235531 | 55 | 257 | 3.0 | 16.0 | 0.00 | 0.03 | 0.02 | 65 | 1010.9 |
| 20260508235032 | 55 | 360 | 6.0 | 16.0 | 0.00 | 0.03 | 0.02 | 65 | 1010.8 |
| 20260508234548 | 55 | 286 | 8.0 | 16.0 | 0.00 | 0.03 | 0.02 | 64 | 1010.8 |
| 20260508234031 | 55 | 360 | 4.0 | 16.0 | 0.00 | 0.03 | 0.02 | 65 | 1010.6 |
| 20260508233530 | 55 | 360 | 7.0 | 16.0 | 0.00 | 0.03 | 0.02 | 65 | 1010.7 |
| 20260508233051 | 55 | 360 | 5.0 | 14.0 | 0.00 | 0.03 | 0.02 | 65 | 1010.8 |
| 20260508232530 | 55 | 360 | 6.0 | 14.0 | 0.00 | 0.03 | 0.02 | 65 | 1010.7 |
| 20260508232031 | 56 | 360 | 8.0 | 15.0 | 0.00 | 0.03 | 0.02 | 64 | 1010.8 |
| 20260508231550 | 56 | 282 | 9.0 | 21.0 | 0.00 | 0.03 | 0.02 | 64 | 1010.6 |
| 20260508231032 | 56 | 360 | 12.0 | 19.0 | 0.00 | 0.03 | 0.02 | 64 | 1010.6 |
| 20260508230531 | 56 | 282 | 7.0 | 16.0 | 0.00 | 0.03 | 0.02 | 65 | 1010.5 |
| 20260508230052 | 56 | 270 | 6.0 | 16.0 | 0.00 | 0.03 | 0.02 | 65 | 1010.4 |
| 20260508225530 | 56 | 279 | 9.0 | 16.0 | 0.00 | 0.03 | 0.02 | 64 | 1010.3 |
| 20260508225033 | 56 | 280 | 7.0 | 16.0 | 0.00 | 0.03 | 0.02 | 66 | 1010.3 |
| 20260508224554 | 56 | 265 | 8.0 | 16.0 | 0.00 | 0.03 | 0.02 | 66 | 1010.3 |
| 20260508224030 | 57 | 252 | 3.0 | 14.0 | 0.00 | 0.03 | 0.02 | 67 | 1010.2 |
| 20260508223531 | 57 | 360 | 5.0 | 14.0 | 0.00 | 0.03 | 0.02 | 67 | 1010.3 |
| 20260508223045 | 57 | 360 | 6.0 | 14.0 | 0.00 | 0.03 | 0.02 | 67 | 1010.3 |
| 20260508222532 | 57 | 250 | 8.0 | 17.0 | 0.00 | 0.03 | 0.02 | 66 | 1010.3 |
| 20260508222031 | 57 | 360 | 10.0 | 17.0 | 0.00 | 0.03 | 0.02 | 66 | 1010.4 |
| 20260508221549 | 57 | 360 | 4.0 | 17.0 | 0.00 | 0.03 | 0.02 | 68 | 1010.4 |
| 20260508221033 | 56 | 282 | 7.0 | 17.0 | 0.00 | 0.03 | 0.02 | 70 | 1010.4 |
| 20260508220534 | 56 | 279 | 3.0 | 13.0 | 0.00 | 0.03 | 0.02 | 72 | 1010.7 |
| 20260508220048 | 55 | 268 | 5.0 | 13.0 | 0.00 | 0.03 | 0.02 | 74 | 1010.6 |
| 20260508215529 | 55 | 360 | 2.0 | 11.0 | 0.00 | 0.03 | 0.02 | 75 | 1010.7 |
| 20260508215030 | 54 | 360 | 3.0 | 9.0 | 0.00 | 0.03 | 0.02 | 75 | 1010.8 |
| 20260508214606 | 54 | 0 | 4.0 | 9.0 | 0.00 | 0.03 | 0.02 | 75 | 1010.6 |
| 20260508214030 | 54 | 360 | 3.0 | 8.0 | 0.00 | 0.03 | 0.02 | 76 | 1010.8 |
| 20260508213529 | 54 | 360 | 2.0 | 4.0 | 0.01 | 0.03 | 0.02 | 76 | 1010.7 |
| 20260508213057 | 54 | 360 | 0.0 | 3.0 | 0.01 | 0.03 | 0.02 | 77 | 1010.6 |
| 20260508212529 | 53 | 0 | 1.0 | 3.0 | 0.02 | 0.03 | 0.02 | 76 | 1010.5 |
| 20260508212033 | 53 | 360 | 1.0 | 6.0 | 0.02 | 0.03 | 0.02 | 77 | 1010.6 |
| 20260508211549 | 53 | 360 | 2.0 | 8.0 | 0.02 | 0.03 | 0.02 | 77 | 1010.7 |
| 20260508211030 | 53 | 360 | 3.0 | 8.0 | 0.02 | 0.03 | 0.02 | 77 | 1010.7 |
| 20260508210530 | 53 | 360 | 1.0 | 10.0 | 0.02 | 0.03 | 0.02 | 78 | 1010.8 |
| 20260508210049 | 53 | 360 | 2.0 | 10.0 | 0.02 | 0.03 | 0.02 | 77 | 1010.8 |
| 20260508205530 | 53 | 286 | 3.0 | 12.0 | 0.02 | 0.03 | 0.02 | 77 | 1010.8 |
| 20260508205033 | 53 | 360 | 3.0 | 14.0 | 0.02 | 0.03 | 0.02 | 76 | 1010.8 |
| 20260508204551 | 53 | 360 | 7.0 | 16.0 | 0.02 | 0.03 | 0.02 | 74 | 1010.9 |
| 20260508204030 | 54 | 278 | 8.0 | 27.0 | 0.01 | 0.02 | 0.01 | 73 | 1011.1 |
| 20260508203529 | 55 | 360 | 10.0 | 27.0 | 0.01 | 0.02 | 0.01 | 70 | 1011.3 |
| 20260508203054 | 56 | 360 | 13.0 | 27.0 | 0.01 | 0.02 | 0.01 | 64 | 1011.3 |
| 20260508202532 | 57 | 360 | 11.0 | 26.0 | 0.00 | 0.01 | 0.00 | 59 | 1011.0 |
| 20260508202029 | 58 | 360 | 11.0 | 28.0 | 0.00 | 0.01 | 0.00 | 54 | 1010.6 |
| 20260508201601 | 58 | 360 | 16.0 | 27.0 | 0.00 | 0.01 | 0.00 | 51 | 1010.4 |
| 20260508201030 | 58 | 360 | 11.0 | 24.0 | 0.00 | 0.01 | 0.00 | 51 | 1010.4 |
| 20260508200529 | 58 | 282 | 9.0 | 24.0 | 0.00 | 0.01 | 0.00 | 51 | 1010.3 |
| 20260508195529 | 58 | 360 | 4.0 | 12.0 | 0.00 | 0.01 | 0.00 | 54 | 1010.5 |
| 20260508195029 | 58 | 360 | 0.0 | 4.0 | 0.00 | 0.01 | 0.00 | 57 | 1010.4 |
| 20260508194545 | 58 | 0 | 0.0 | 4.0 | 0.00 | 0.01 | 0.00 | 58 | 1010.7 |
| 20260508194029 | 58 | 0 | 2.0 | 4.0 | 0.00 | 0.01 | 0.00 | 57 | 1010.6 |
| 20260508193529 | 57 | 13 | 0.0 | 3.0 | 0.00 | 0.01 | 0.00 | 59 | 1010.6 |
| 20260508193054 | 57 | 12 | 0.0 | 4.0 | 0.00 | 0.01 | 0.00 | 58 | 1010.6 |
| 20260508192530 | 57 | 0 | 0.0 | 4.0 | 0.00 | 0.01 | 0.00 | 59 | 1010.7 |
| 20260508192029 | 57 | 0 | 0.0 | 3.0 | 0.00 | 0.01 | 0.00 | 57 | 1010.6 |
| 20260508191552 | 57 | 0 | 0.0 | 3.0 | 0.00 | 0.01 | 0.00 | 58 | 1010.7 |
| 20260508191033 | 57 | 0 | 0.0 | 3.0 | 0.00 | 0.01 | 0.00 | 57 | 1010.5 |
| 20260508190530 | 58 | 0 | 0.0 | 5.0 | 0.00 | 0.01 | 0.00 | 58 | 1010.4 |
| 20260508190057 | 58 | 0 | 1.0 | 6.0 | 0.00 | 0.01 | 0.00 | 59 | 1010.5 |
| 20260508185531 | 58 | 360 | 0.0 | 12.0 | 0.00 | 0.01 | 0.00 | 58 | 1010.5 |
| 20260508185030 | 58 | 360 | 4.0 | 12.0 | 0.00 | 0.01 | 0.00 | 59 | 1010.6 |
| 20260508184548 | 58 | 74 | 1.0 | 14.0 | 0.00 | 0.01 | 0.00 | 60 | 1010.6 |
| 20260508184030 | 58 | 58 | 1.0 | 17.0 | 0.00 | 0.01 | 0.00 | 58 | 1010.6 |
| 20260508183532 | 58 | 360 | 4.0 | 17.0 | 0.00 | 0.01 | 0.00 | 56 | 1011.1 |
| 20260508183053 | 59 | 360 | 8.0 | 17.0 | 0.00 | 0.01 | 0.00 | 50 | 1011.1 |
| 20260508182531 | 59 | 59 | 5.0 | 14.0 | 0.00 | 0.01 | 0.00 | 48 | 1010.7 |
| 20260508182030 | 59 | 360 | 7.0 | 16.0 | 0.00 | 0.01 | 0.00 | 48 | 1010.8 |
| 20260508181608 | 60 | 360 | 6.0 | 16.0 | 0.00 | 0.01 | 0.00 | 48 | 1010.8 |
| 20260508181030 | 60 | 360 | 5.0 | 21.0 | 0.00 | 0.01 | 0.00 | 50 | 1010.8 |
| 20260508180529 | 59 | 360 | 10.0 | 21.0 | 0.00 | 0.01 | 0.00 | 48 | 1011.0 |
| 20260508180104 | 60 | 275 | 6.0 | 21.0 | 0.00 | 0.01 | 0.00 | 48 | 1011.2 |
| 20260508175532 | 60 | 360 | 11.0 | 21.0 | 0.00 | 0.01 | 0.00 | 49 | 1011.3 |
| 20260508175031 | 60 | 360 | 7.0 | 16.0 | 0.00 | 0.01 | 0.00 | 50 | 1011.3 |
| 20260508174547 | 59 | 360 | 3.0 | 15.0 | 0.00 | 0.01 | 0.00 | 51 | 1011.3 |
| 20260508174032 | 59 | 360 | 5.0 | 16.0 | 0.00 | 0.01 | 0.00 | 54 | 1011.3 |
| 20260508173533 | 58 | 360 | 7.0 | 16.0 | 0.00 | 0.01 | 0.00 | 54 | 1011.5 |
| 20260508173050 | 57 | 360 | 5.0 | 13.0 | 0.00 | 0.01 | 0.00 | 58 | 1011.5 |
| 20260508172531 | 57 | 360 | 6.0 | 21.0 | 0.00 | 0.01 | 0.00 | 56 | 1011.5 |
| 20260508172035 | 57 | 360 | 8.0 | 21.0 | 0.00 | 0.01 | 0.00 | 54 | 1011.7 |
| 20260508171548 | 57 | 360 | 11.0 | 21.0 | 0.00 | 0.01 | 0.00 | 53 | 1011.8 |
| 20260508171031 | 57 | 360 | 10.0 | 17.0 | 0.00 | 0.01 | 0.00 | 51 | 1011.9 |
| 20260508170530 | 57 | 360 | 6.0 | 17.0 | 0.00 | 0.01 | 0.00 | 50 | 1011.9 |
| 20260508170049 | 57 | 355 | 2.0 | 19.0 | 0.00 | 0.01 | 0.00 | 49 | 1011.8 |
| 20260508165530 | 57 | 281 | 6.0 | 19.0 | 0.00 | 0.01 | 0.00 | 50 | 1011.7 |
| 20260508165033 | 58 | 360 | 5.0 | 15.0 | 0.00 | 0.01 | 0.00 | 50 | 1011.7 |
| 20260508164543 | 57 | 360 | 8.0 | 21.0 | 0.00 | 0.01 | 0.00 | 50 | 1011.7 |
| 20260508164030 | 57 | 360 | 11.0 | 22.0 | 0.00 | 0.01 | 0.00 | 49 | 1011.7 |
| 20260508163530 | 57 | 360 | 9.0 | 22.0 | 0.00 | 0.01 | 0.00 | 49 | 1011.8 |
| 20260508163051 | 58 | 360 | 12.0 | 21.0 | 0.00 | 0.01 | 0.00 | 48 | 1011.8 |
| 20260508162530 | 58 | 248 | 12.0 | 21.0 | 0.00 | 0.01 | 0.00 | 50 | 1011.7 |
| 20260508162032 | 58 | 360 | 6.0 | 20.0 | 0.00 | 0.01 | 0.00 | 50 | 1011.8 |
| 20260508161548 | 57 | 346 | 9.0 | 20.0 | 0.00 | 0.01 | 0.00 | 49 | 1011.9 |
| 20260508161031 | 57 | 360 | 13.0 | 20.0 | 0.00 | 0.01 | 0.00 | 48 | 1011.9 |
| 20260508160529 | 58 | 360 | 11.0 | 20.0 | 0.00 | 0.01 | 0.00 | 48 | 1011.9 |
| 20260508160047 | 58 | 360 | 11.0 | 18.0 | 0.00 | 0.01 | 0.00 | 51 | 1012.0 |
| 20260508155530 | 58 | 360 | 7.0 | 22.0 | 0.00 | 0.01 | 0.00 | 50 | 1012.0 |
| 20260508155030 | 58 | 360 | 7.0 | 22.0 | 0.00 | 0.01 | 0.00 | 51 | 1012.0 |
| 20260508154553 | 58 | 263 | 11.0 | 22.0 | 0.00 | 0.01 | 0.00 | 50 | 1011.9 |
| 20260508154029 | 58 | 360 | 6.0 | 23.0 | 0.00 | 0.01 | 0.00 | 49 | 1012.0 |
| 20260508153531 | 58 | 360 | 15.0 | 23.0 | 0.00 | 0.01 | 0.00 | 49 | 1011.9 |
| 20260508153042 | 58 | 360 | 12.0 | 24.0 | 0.00 | 0.01 | 0.00 | 48 | 1012.0 |
| 20260508152530 | 59 | 279 | 7.0 | 31.0 | 0.00 | 0.01 | 0.00 | 49 | 1012.0 |
| 20260508152030 | 59 | 360 | 13.0 | 31.0 | 0.00 | 0.01 | 0.00 | 49 | 1011.8 |
| 20260508151542 | 59 | 360 | 6.0 | 18.0 | 0.00 | 0.01 | 0.00 | 52 | 1011.7 |
| 20260508151030 | 59 | 360 | 7.0 | 21.0 | 0.00 | 0.01 | 0.00 | 52 | 1011.8 |
| 20260508150530 | 58 | 360 | 8.0 | 26.0 | 0.00 | 0.01 | 0.00 | 53 | 1011.6 |
| 20260508150046 | 58 | 360 | 11.0 | 26.0 | 0.00 | 0.01 | 0.00 | 51 | 1011.5 |
| 20260508145530 | 57 | 360 | 12.0 | 24.0 | 0.00 | 0.01 | 0.00 | 51 | 1011.5 |
| 20260508145030 | 57 | 360 | 10.0 | 25.0 | 0.00 | 0.01 | 0.00 | 51 | 1011.5 |
| 20260508144548 | 57 | 360 | 10.0 | 25.0 | 0.00 | 0.01 | 0.00 | 52 | 1011.5 |
| 20260508144030 | 57 | 360 | 10.0 | 25.0 | 0.00 | 0.01 | 0.00 | 51 | 1011.5 |
| 20260508143530 | 56 | 253 | 12.0 | 25.0 | 0.00 | 0.01 | 0.00 | 52 | 1011.7 |
| 20260508143047 | 56 | 360 | 11.0 | 23.0 | 0.00 | 0.01 | 0.00 | 53 | 1011.6 |
| 20260508142529 | 56 | 360 | 10.0 | 19.0 | 0.00 | 0.01 | 0.00 | 53 | 1011.9 |
| 20260508142029 | 55 | 248 | 7.0 | 20.0 | 0.00 | 0.01 | 0.00 | 56 | 1012.0 |
| 20260508141557 | 54 | 360 | 6.0 | 25.0 | 0.00 | 0.01 | 0.00 | 54 | 1012.0 |
| 20260508141032 | 54 | 360 | 11.0 | 25.0 | 0.00 | 0.01 | 0.00 | 55 | 1011.8 |
| 20260508140530 | 54 | 279 | 8.0 | 15.0 | 0.00 | 0.01 | 0.00 | 57 | 1012.1 |
| 20260508140052 | 53 | 360 | 4.0 | 16.0 | 0.00 | 0.01 | 0.00 | 58 | 1012.0 |
| 20260508135530 | 53 | 271 | 10.0 | 16.0 | 0.00 | 0.01 | 0.00 | 57 | 1012.0 |
| 20260508135028 | 52 | 244 | 4.0 | 15.0 | 0.00 | 0.01 | 0.00 | 59 | 1012.1 |
| 20260508134548 | 52 | 360 | 7.0 | 15.0 | 0.00 | 0.01 | 0.00 | 57 | 1011.9 |
| 20260508134029 | 52 | 360 | 7.0 | 15.0 | 0.00 | 0.01 | 0.00 | 57 | 1011.8 |
| 20260508133531 | 52 | 254 | 7.0 | 16.0 | 0.00 | 0.01 | 0.00 | 59 | 1011.9 |
| 20260508133049 | 51 | 266 | 6.0 | 16.0 | 0.00 | 0.01 | 0.00 | 60 | 1012.1 |
| 20260508132529 | 51 | 254 | 10.0 | 16.0 | 0.00 | 0.01 | 0.00 | 60 | 1012.1 |
| 20260508132029 | 51 | 360 | 7.0 | 15.0 | 0.00 | 0.01 | 0.00 | 61 | 1012.1 |
| 20260508131545 | 51 | 247 | 3.0 | 12.0 | 0.00 | 0.01 | 0.00 | 64 | 1012.2 |
| 20260508131030 | 50 | 275 | 2.0 | 12.0 | 0.00 | 0.01 | 0.00 | 67 | 1012.3 |
| 20260508130529 | 49 | 0 | 3.0 | 12.0 | 0.00 | 0.01 | 0.00 | 67 | 1012.2 |
| 20260508130047 | 49 | 360 | 3.0 | 11.0 | 0.00 | 0.01 | 0.00 | 67 | 1012.2 |
| 20260508125529 | 48 | 360 | 5.0 | 11.0 | 0.00 | 0.01 | 0.00 | 68 | 1012.2 |
| 20260508125030 | 47 | 240 | 5.0 | 11.0 | 0.00 | 0.01 | 0.00 | 71 | 1012.2 |
| 20260508124543 | 46 | 241 | 3.0 | 8.0 | 0.00 | 0.01 | 0.00 | 74 | 1012.2 |
| 20260508124031 | 45 | 0 | 2.0 | 5.0 | 0.00 | 0.01 | 0.00 | 77 | 1012.2 |
| 20260508123529 | 43 | 360 | 1.0 | 5.0 | 0.00 | 0.01 | 0.00 | 78 | 1012.2 |
| 20260508123047 | 43 | 0 | 1.0 | 5.0 | 0.00 | 0.01 | 0.00 | 79 | 1012.2 |
| 20260508122529 | 42 | 0 | 1.0 | 5.0 | 0.00 | 0.01 | 0.00 | 80 | 1012.3 |
| 20260508122029 | 42 | 0 | 2.0 | 5.0 | 0.00 | 0.01 | 0.00 | 81 | 1012.3 |
| 20260508121552 | 41 | 360 | 1.0 | 4.0 | 0.00 | 0.01 | 0.00 | 83 | 1012.3 |
| 20260508121029 | 41 | 252 | 2.0 | 4.0 | 0.00 | 0.01 | 0.00 | 83 | 1012.4 |
| 20260508120532 | 40 | 0 | 0.0 | 3.0 | 0.00 | 0.01 | 0.00 | 83 | 1012.3 |
| 20260508120057 | 40 | 360 | 1.0 | 3.0 | 0.00 | 0.01 | 0.00 | 83 | 1012.4 |
| 20260508115529 | 40 | 0 | 0.0 | 3.0 | 0.00 | 0.01 | 0.00 | 82 | 1012.3 |
| 20260508115029 | 40 | 360 | 0.0 | 4.0 | 0.00 | 0.01 | 0.00 | 83 | 1012.4 |
| 20260508114546 | 39 | 0 | 0.0 | 4.0 | 0.00 | 0.01 | 0.00 | 83 | 1012.4 |
| 20260508114031 | 39 | 0 | 2.0 | 4.0 | 0.00 | 0.01 | 0.00 | 84 | 1012.4 |
| 20260508113531 | 38 | 259 | 1.0 | 3.0 | 0.00 | 0.01 | 0.00 | 85 | 1012.4 |
| 20260508113044 | 38 | 0 | 0.0 | 3.0 | 0.00 | 0.01 | 0.00 | 86 | 1012.7 |
| 20260508112529 | 38 | 0 | 0.0 | 3.0 | 0.00 | 0.01 | 0.00 | 86 | 1012.8 |
| 20260508112029 | 38 | 360 | 1.0 | 4.0 | 0.00 | 0.01 | 0.00 | 87 | 1012.8 |
| 20260508111556 | 37 | 360 | 1.0 | 4.0 | 0.00 | 0.01 | 0.00 | 87 | 1012.8 |
| 20260508111032 | 37 | 360 | 2.0 | 4.0 | 0.00 | 0.01 | 0.00 | 87 | 1012.8 |
| 20260508110531 | 37 | 360 | 2.0 | 4.0 | 0.00 | 0.01 | 0.00 | 87 | 1012.8 |
| 20260508110058 | 36 | 360 | 2.0 | 4.0 | 0.00 | 0.01 | 0.00 | 87 | 1012.7 |
| 20260508105529 | 36 | 256 | 1.0 | 4.0 | 0.00 | 0.01 | 0.00 | 88 | 1012.6 |
| 20260508105030 | 36 | 249 | 1.0 | 4.0 | 0.00 | 0.01 | 0.00 | 88 | 1012.5 |
| 20260508104546 | 36 | 360 | 0.0 | 1.0 | 0.00 | 0.01 | 0.00 | 88 | 1012.5 |
| 20260508104030 | 36 | 0 | 0.0 | 0.0 | 0.00 | 0.01 | 0.00 | 88 | 1012.5 |
| 20260508103529 | 36 | 0 | 0.0 | 3.0 | 0.00 | 0.01 | 0.00 | 88 | 1012.3 |
| 20260508103055 | 36 | 0 | 0.0 | 4.0 | 0.00 | 0.01 | 0.00 | 88 | 1012.2 |
| 20260508102530 | 35 | 0 | 0.0 | 4.0 | 0.00 | 0.01 | 0.00 | 89 | 1012.2 |
| 20260508102029 | 35 | 251 | 2.0 | 4.0 | 0.00 | 0.01 | 0.00 | 89 | 1012.3 |
| 20260508101549 | 35 | 251 | 1.0 | 4.0 | 0.00 | 0.01 | 0.00 | 89 | 1012.3 |
| 20260508101029 | 35 | 0 | 0.0 | 3.0 | 0.00 | 0.01 | 0.00 | 89 | 1012.2 |
| 20260508100614 | 34 | 0 | 0.0 | 0.0 | 0.00 | 0.01 | 0.00 | 89 | 1012.2 |
| 20260508100048 | 34 | 0 | 0.0 | 0.0 | 0.00 | 0.01 | 0.00 | 88 | 1012.1 |
| 20260508095529 | 34 | 0 | 0.0 | 0.0 | 0.00 | 0.01 | 0.00 | 88 | 1012.1 |
| 20260508095030 | 34 | 0 | 0.0 | 0.0 | 0.00 | 0.01 | 0.00 | 88 | 1012.0 |
| 20260508094604 | 34 | 0 | 0.0 | 0.0 | 0.00 | 0.01 | 0.00 | 88 | 1012.1 |
| 20260508094031 | 34 | 0 | 0.0 | 0.0 | 0.00 | 0.01 | 0.00 | 88 | 1012.2 |
| 20260508093530 | 34 | 0 | 0.0 | 0.0 | 0.00 | 0.01 | 0.00 | 88 | 1012.0 |
| 20260508093046 | 35 | 0 | 0.0 | 4.0 | 0.00 | 0.01 | 0.00 | 88 | 1012.1 |
| 20260508092529 | 35 | 0 | 0.0 | 4.0 | 0.00 | 0.01 | 0.00 | 88 | 1012.1 |
| 20260508092029 | 35 | 250 | 2.0 | 4.0 | 0.00 | 0.01 | 0.00 | 88 | 1011.9 |
| 20260508091549 | 35 | 253 | 0.0 | 3.0 | 0.00 | 0.01 | 0.00 | 88 | 1012.0 |
| 20260508091029 | 35 | 0 | 0.0 | 0.0 | 0.00 | 0.01 | 0.00 | 88 | 1012.0 |
| 20260508090529 | 35 | 0 | 0.0 | 0.0 | 0.00 | 0.01 | 0.00 | 88 | 1012.0 |
| 20260508090053 | 35 | 0 | 0.0 | 0.0 | 0.00 | 0.01 | 0.00 | 88 | 1012.1 |
| 20260508085528 | 35 | 0 | 0.0 | 0.0 | 0.00 | 0.01 | 0.00 | 88 | 1012.0 |
| 20260508085028 | 35 | 0 | 0.0 | 0.0 | 0.00 | 0.01 | 0.00 | 88 | 1012.0 |
| 20260508084548 | 35 | 0 | 0.0 | 0.0 | 0.00 | 0.01 | 0.00 | 88 | 1012.0 |
| 20260508084030 | 35 | 0 | 0.0 | 0.0 | 0.00 | 0.01 | 0.00 | 88 | 1012.0 |
| 20260508083533 | 35 | 0 | 0.0 | 0.0 | 0.00 | 0.01 | 0.00 | 88 | 1012.0 |
| 20260508083107 | 36 | 0 | 0.0 | 3.0 | 0.00 | 0.01 | 0.00 | 87 | 1012.0 |
| 20260508082529 | 36 | 0 | 0.0 | 3.0 | 0.00 | 0.01 | 0.00 | 87 | 1012.0 |
| 20260508082030 | 36 | 253 | 1.0 | 4.0 | 0.00 | 0.01 | 0.00 | 87 | 1012.0 |
| 20260508081551 | 36 | 254 | 2.0 | 4.0 | 0.00 | 0.01 | 0.00 | 87 | 1012.1 |
| 20260508081033 | 36 | 360 | 0.0 | 3.0 | 0.00 | 0.01 | 0.00 | 87 | 1012.0 |
| 20260508080529 | 36 | 0 | 0.0 | 0.0 | 0.00 | 0.01 | 0.00 | 87 | 1011.9 |
| 20260508080049 | 36 | 0 | 0.0 | 3.0 | 0.00 | 0.01 | 0.00 | 87 | 1012.0 |
| 20260508075529 | 36 | 0 | 0.0 | 3.0 | 0.00 | 0.01 | 0.00 | 87 | 1012.0 |
| 20260508075029 | 36 | 360 | 1.0 | 3.0 | 0.00 | 0.01 | 0.00 | 88 | 1012.1 |
| 20260508074545 | 37 | 275 | 1.0 | 4.0 | 0.00 | 0.01 | 0.00 | 88 | 1011.9 |
| 20260508074029 | 37 | 274 | 1.0 | 4.0 | 0.00 | 0.01 | 0.00 | 88 | 1012.0 |
| 20260508073529 | 37 | 360 | 1.0 | 3.0 | 0.00 | 0.01 | 0.00 | 87 | 1012.0 |
| 20260508073048 | 37 | 0 | 0.0 | 3.0 | 0.00 | 0.01 | 0.00 | 87 | 1012.1 |
| 20260508072529 | 37 | 0 | 0.0 | 4.0 | 0.00 | 0.01 | 0.00 | 87 | 1012.0 |
| 20260508072029 | 37 | 360 | 0.0 | 4.0 | 0.00 | 0.01 | 0.00 | 87 | 1012.0 |
| 20260508071548 | 37 | 0 | 2.0 | 4.0 | 0.00 | 0.01 | 0.00 | 87 | 1012.1 |
| 20260508071029 | 37 | 0 | 1.0 | 6.0 | 0.00 | 0.01 | 0.00 | 87 | 1012.1 |
| 20260508070529 | 37 | 360 | 3.0 | 6.0 | 0.00 | 0.01 | 0.00 | 88 | 1012.3 |
| 20260508070047 | 37 | 261 | 3.0 | 6.0 | 0.00 | 0.01 | 0.00 | 87 | 1012.3 |
| 20260508065531 | 38 | 360 | 1.0 | 3.0 | 0.00 | 0.01 | 0.00 | 87 | 1012.3 |
| 20260508065031 | 38 | 0 | 0.0 | 3.0 | 0.00 | 0.01 | 0.00 | 87 | 1012.4 |
| 20260508064551 | 38 | 360 | 0.0 | 4.0 | 0.00 | 0.01 | 0.00 | 87 | 1012.3 |
| 20260508064029 | 38 | 360 | 2.0 | 4.0 | 0.00 | 0.01 | 0.00 | 87 | 1012.4 |
| 20260508063529 | 38 | 360 | 2.0 | 4.0 | 0.00 | 0.01 | 0.00 | 87 | 1012.4 |
| 20260508063047 | 38 | 257 | 2.0 | 4.0 | 0.00 | 0.01 | 0.00 | 88 | 1012.5 |
| 20260508062529 | 38 | 259 | 1.0 | 4.0 | 0.00 | 0.01 | 0.00 | 88 | 1012.4 |
| 20260508062028 | 38 | 263 | 1.0 | 3.0 | 0.00 | 0.01 | 0.00 | 88 | 1012.4 |
| 20260508061554 | 38 | 0 | 0.0 | 2.0 | 0.00 | 0.01 | 0.00 | 87 | 1012.3 |
| 20260508061032 | 38 | 0 | 0.0 | 2.0 | 0.00 | 0.01 | 0.00 | 87 | 1012.2 |
| 20260508060530 | 38 | 0 | 0.0 | 0.0 | 0.00 | 0.01 | 0.00 | 87 | 1012.3 |
| 20260508060051 | 38 | 0 | 0.0 | 0.0 | 0.00 | 0.01 | 0.00 | 87 | 1012.3 |
| 20260508055529 | 39 | 0 | 0.0 | 0.0 | 0.00 | 0.01 | 0.00 | 87 | 1012.3 |
| 20260508055029 | 39 | 0 | 0.0 | 0.0 | 0.00 | 0.01 | 0.00 | 87 | 1012.3 |
| 20260508054550 | 39 | 0 | 0.0 | 0.0 | 0.00 | 0.01 | 0.00 | 86 | 1012.3 |